Regional Weather Roundup
Issued by NWS Newport/Morehead, NC

Current Version | Previous Version | Graphics & Text | Print | Product List | Glossary Off
Versions: 1 2 3 4 5 6 7 8 9 10 11 12 13 14 15 16 17 18 19 20 21 22 23 24 25 26 27 28 29 30 31 32 33 34 35 36 37 38 39 40 41 42 43 44 45 46 47 48 49 50

082
ASUS42 KMHX 132025
RWRMHX
WEATHER ROUNDUP FOR EASTERN NORTH CAROLINA
NATIONAL WEATHER SERVICE NEWPORT/MOREHEAD CITY NC
300 PM EST SAT FEB 13 2016

NOTE: "FAIR" INDICATES FEW OR NO CLOUDS BELOW 12,000 FEET
WITH NO SIGNIFICANT WEATHER AND/OR OBSTRUCTIONS TO VISIBILITY

NCZ015>017-031-032-045>047-102-103-132100-
NORTH COAST

CITY           SKY/WX    TMP DP  RH WIND       PRES   REMARKS
EDENTON        SUNNY     36   4  26 NW15G21   30.25R
ELIZABETH CITY SUNNY     32   5  32 NW22G31   30.24R WCI  19
KITTY HAWK     CLEAR     35   4  28 NW10G17   30.21R
MANTEO         SUNNY     32   6  33 NW14G23   30.23R

$$

NCZ045>047-081-094-103-104-132100-
CENTRAL COAST

CITY           SKY/WX    TMP DP  RH WIND       PRES   REMARKS
FRISCO         SUNNY     36   9  32 NW12G21   30.23R
SWANQUARTER      N/A     36 N/A N/A NW17      30.21S

$$

NCZ095-097-098-100-101-132100-
SOUTHERN COAST

CITY           SKY/WX    TMP DP  RH WIND       PRES   REMARKS
BEAUFORT       SUNNY     36  12  37 NW18      30.25S
CEDAR ISLAND     N/A     34 N/A N/A NW26      30.27S
JACKSONVILLE   SUNNY     37  12  35 NW16G25   30.26S
PINEY ISLAND   CLEAR    N/A N/A N/A NW18G25   30.24S
WILMINGTON     SUNNY     42  13  30 NW14G24   30.25S


$$

NCZ011>013-027>030-043-044-078>080-089-090>093-098-132100-
COASTAL PLAIN

CITY           SKY/WX    TMP DP  RH WIND       PRES   REMARKS
AHOSKIE        SUNNY     32  -3  21 W7        30.27R
CLINTON        SUNNY     37  10  33 NW9       30.29S
ELIZABETHTOWN  SUNNY     40   7  25 NW6       30.27R
GOLDSBORO      SUNNY     36   3  25 W13G23    30.26S
GREENVILLE     SUNNY     34   3  27 NW12G20   30.28S
HAVELOCK       SUNNY     37   9  31 NW21      30.26R
KENANSVILLE    SUNNY     35   8  33 NW13G21   30.29R
KINSTON        SUNNY     36   5  27 NW12G17   30.28S
NEW BERN       SUNNY     35   7  31 NW15G23   30.27S
RICHLANDS      SUNNY     36   9  32 CALM      30.28R
ROCKY MOUNT    SUNNY     33  -1  23 W10G28    30.28S
WASHINGTON     SUNNY     34   6  30 NW14      30.26R
WHITEVILLE     SUNNY     41   8  25 W7        30.26R

$$

AMZ130-135-150-152-154-156-158-170-250-252-270-ANZ085-086-088-633-658-670-132100-
MARINE OBSERVATIONS

STATION/POSITION TIME  TEMP    WIND        PRES    WAVE   SWELL
                       AIR SEA DIR/SP/G            HT/PER HT/PER
                 (UTC) (F)     (DEG/KT/KT) (MB)    (FT/S) (FT/S)
CHESAPEAKE LIGHT 2000   29     310/ 28/ 32 1023.9
64 E VA BEACH    1950   30 48  320/ 25/ 33 1021.7   10/ 7
DUCK             2000   31     310/ 14/ 21 1022.7
2 E DUCK         2011      42                N/A     4/ 7
OREGON INLET     2000   31 40  310/ 18/ 25 1023.4
13E OREGON INLT  2000      45                N/A     7/ 7   2/11
HATTERAS CG      2000   32 43  310/ 18/ 24 1023.0
DIAMOND BUOY     1950   35 72  340/ 17/ 23 1023.2    5/ 8   3/ 8
CAPE LOOKOUT     NOT AVBL
BEAUFORT LAB     2000   34 42  330/  9/ 15 1023.1
30 SE NEW RVR IN 2008   38 61              1023.4
30 SE NEW RVR IN 1925      61                N/A     5/ 5   2/11
27 SE WRIGHTSVLE 2008   42 60  350/ 17/ 25 1022.8
5 SE WRIGHTSVLE  1908   39 50  340/ 17/ 23 1024.0
225 S CAPE HAT   1950   53 68  340/ 21/ 27   N/A    10/ 8
41 SE CHARLESTON 1950   44 67  350/  8/ 14 1024.2    4/ 5   3/ 5

$$




USA.gov is the U.S. government's official web portal to all federal, state and local government web resources and services.